Location: Winthrop
(48.4780°N, 120.1850°W)
Time: 03:23:43
(UTC-08:00)

Vanguard 1 Rocket - Pass Details

Date: 05 December 2023
Orbit: 654 x 4218 km, 34.3° (Epoch: 24 February)

Event Time Altitude Azimuth Distance (km) Brightness Sun altitude
Rises 08:26:32 0° 264° (W) 7,131 11.6 5.7°
Reaches altitude 10° 08:32:33 10° 257° (WSW) 5,509 11.1 6.4°
Maximum altitude 08:44:48 34° 201° (SSW) 2,593 10.1 7.8°
Drops below altitude 10° 08:51:51 10° 139° (SE) 3,138 14.6 8.6°
Sets 08:54:17 0° 129° (SE) 3,802 12.6 8.8°
